Date,TemperatureHighF,TemperatureAvgF,TemperatureLowF,DewpointHighF,DewpointAvgF,DewpointLowF,HumidityHigh,HumidityAvg,HumidityLow,PressureMaxIn,PressureMinIn,WindSpeedMaxMPH,WindSpeedAvgMPH,GustSpeedMaxMPH,PrecipitationSumIn
2013-1-1,42,37,32,32,29,20,88,74,51,28.23,28.11,5,1,13,0.00
2013-1-2,39,32,22,30,20,10,89,64,34,28.38,28.18,5,1,10,0.00
2013-1-3,40,27,14,19,16,12,92,67,38,28.39,28.30,7,1,17,0.00
2013-1-4,36,30,23,22,19,17,80,65,52,28.41,28.34,10,3,17,0.00
2013-1-5,48,32,20,29,21,16,87,67,28,28.54,28.34,6,0,11,0.00
2013-1-6,44,36,25,30,27,22,91,71,54,28.37,28.23,9,1,14,0.00
2013-1-7,44,33,21,30,24,19,94,72,44,28.62,28.38,6,1,10,0.00
2013-1-8,54,31,19,32,24,17,96,79,34,28.58,28.50,6,1,9,0.00
2013-1-9,60,38,20,46,32,19,96,81,58,28.65,28.46,8,1,19,0.00
2013-1-10,58,38,24,37,30,23,97,77,35,28.78,28.61,2,0,4,0.00
2013-1-11,48,41,32,45,37,30,97,85,59,28.60,28.30,14,2,17,0.04
2013-1-12,73,51,36,56,46,36,98,85,50,28.36,28.29,10,0,10,0.00
2013-1-13,69,59,43,57,52,42,99,80,56,28.30,28.18,9,2,15,0.00
2013-1-14,62,51,37,56,45,36,95,80,67,28.50,28.21,6,1,11,0.23
2013-1-15,38,36,33,37,34,32,97,95,92,28.51,28.30,3,0,8,0.67
2013-1-16,50,40,33,46,38,32,98,91,77,28.30,28.03,5,1,7,0.57
2013-1-17,44,38,33,39,28,22,89,70,50,28.32,28.21,5,0,13,0.00
2013-1-18,42,31,23,23,14,3,82,54,21,28.62,28.33,7,1,17,0.00
2013-1-19,56,37,22,28,21,17,86,58,25,28.55,28.17,10,2,12,0.00
2013-1-20,50,42,30,30,18,-2,71,42,18,28.28,28.10,14,2,28,0.00
2013-1-21,43,29,18,21,13,6,85,55,25,28.27,28.01,13,2,22,0.00
2013-1-22,21,14,8,9,-3,-7,62,47,32,28.40,28.16,12,3,21,0.00
2013-1-23,25,17,8,16,2,-7,88,55,26,28.43,28.21,9,2,17,0.00
2013-1-24,22,16,5,17,8,1,91,72,45,28.65,28.18,8,1,13,0.00
2013-1-25,31,16,4,23,9,0,90,76,55,28.64,28.17,16,3,21,0.00
2013-1-26,32,28,26,23,19,16,76,67,59,28.58,28.18,9,1,15,0.00
2013-1-27,42,29,13,25,19,11,92,70,42,28.70,28.57,7,1,10,0.01
2013-1-28,54,41,31,46,36,24,95,85,68,28.56,28.30,8,1,12,0.11
2013-1-29,73,53,41,55,47,39,98,84,51,28.37,28.18,8,1,13,0.01
2013-1-30,64,56,43,59,53,42,98,90,79,28.18,27.57,17,4,29,1.17
2013-1-31,51,33,27,49,24,15,93,70,57,28.08,27.51,12,3,26,0.63
2013-2-1,28,18,9,24,8,1,88,65,49,28.50,27.98,11,2,23,0.00
2013-2-2,33,20,8,22,13,3,91,76,48,28.48,28.14,8,2,12,0.00
2013-2-3,34,29,22,25,19,11,91,69,56,28.16,27.99,15,2,26,0.00
2013-2-4,39,28,17,30,18,9,95,68,48,28.23,28.07,8,2,21,0.00
2013-2-5,44,37,30,38,32,28,96,86,61,28.13,28.02,6,1,15,0.02
2013-2-6,43,34,21,35,27,19,96,77,52,28.50,28.12,5,1,13,0.03
2013-2-7,42,33,21,32,28,20,95,82,66,28.52,28.31,5,1,12,0.00
2013-2-8,49,36,30,40,30,22,91,80,66,28.30,27.99,9,2,22,0.02
2013-2-9,40,29,18,22,16,12,86,61,33,28.55,28.25,6,1,18,0.00
2013-2-10,44,31,14,27,18,12,93,63,36,28.56,28.33,13,3,18,0.01
2013-2-11,63,49,36,49,34,21,93,63,25,28.33,28.00,13,4,21,0.02
2013-2-12,57,43,27,26,21,15,80,46,20,28.21,28.07,8,2,25,0.00
2013-2-13,41,31,24,33,27,20,97,84,55,28.17,27.86,5,0,7,0.06
2013-2-14,48,33,20,31,26,19,96,79,47,28.20,28.03,5,1,10,0.02
2013-2-15,54,34,21,40,29,20,97,85,46,28.24,28.13,8,1,16,0.06
2013-2-16,32,29,23,29,19,11,94,68,54,28.20,28.07,8,1,10,0.00
2013-2-17,23,19,16,18,8,3,86,63,48,28.39,28.07,6,1,18,0.00
2013-2-18,51,30,9,25,15,5,88,58,33,28.49,28.27,7,1,13,0.00
2013-2-19,48,38,32,39,28,16,90,67,51,28.27,27.93,12,4,17,0.07
2013-2-20,34,27,20,20,13,11,69,57,43,28.34,28.11,13,3,24,0.00
2013-2-21,38,25,11,19,14,8,89,65,43,28.48,28.30,10,1,14,0.00
2013-2-22,38,31,25,32,26,16,90,81,68,28.50,28.28,10,2,15,0.01
2013-2-23,58,40,30,43,34,28,95,81,53,28.29,28.03,4,1,11,0.01
2013-2-24,48,36,28,31,25,18,97,69,35,28.32,28.05,9,2,22,0.01
2013-2-25,45,29,16,23,19,13,92,68,40,28.40,28.29,4,1,7,0.00
2013-2-26,33,29,22,32,26,18,96,90,81,28.36,27.88,9,0,10,0.42
2013-2-27,44,37,32,39,33,31,98,86,62,27.93,27.82,6,1,10,0.18
2013-2-28,37,34,30,31,26,24,93,74,61,27.99,27.88,10,2,22,0.00
2013-3-1,35,33,29,29,24,19,84,70,63,28.12,27.99,4,0,11,0.00
2013-3-2,33,29,25,21,19,16,75,66,56,28.11,28.05,5,1,12,0.00
2013-3-3,36,27,23,19,15,11,75,61,49,28.17,28.06,8,2,14,0.00
2013-3-4,43,28,17,18,13,9,83,57,30,28.26,28.17,6,1,13,0.00
2013-3-5,56,37,22,38,27,18,95,69,43,28.26,27.90,7,1,12,0.03
2013-3-6,32,28,31,31,15,-100,96,85,95,27.89,27.88,0,-118,1,0.03
2013-3-7,36,33,34,28,22,-100,81,73,67,28.43,0.00,2,-43,6,0.01
2013-3-8,41,32,20,27,22,-100,93,70,53,28.55,28.39,14,-9,15,0.12
2013-3-9,61,31,13,32,23,11,95,76,27,28.59,28.44,5,0,6,0.00
2013-3-10,61,40,22,34,28,21,96,69,33,28.50,28.35,8,1,13,0.00
2013-3-11,55,47,34,49,34,-100,97,66,40,28.38,28.05,15,-8,22,0.05
2013-3-12,52,45,34,50,38,25,97,77,55,28.22,27.98,8,2,17,0.33
2013-3-13,43,33,26,30,24,17,95,70,42,28.30,28.15,10,2,18,0.00
2013-3-14,41,31,23,20,16,12,79,57,38,28.38,28.29,11,2,26,0.00
2013-3-15,57,40,23,35,26,16,80,60,40,28.32,28.04,9,2,17,0.00
2013-3-16,63,50,36,52,42,33,96,78,59,28.09,27.86,10,2,17,0.15
2013-3-17,40,34,31,37,33,30,97,95,89,28.40,28.10,5,0,5,0.03
2013-3-18,36,32,30,33,29,-100,96,91,84,28.39,28.05,6,-10,13,0.26
2013-3-19,53,41,32,36,24,5,97,59,21,28.19,27.97,14,4,25,0.74
2013-3-20,48,37,28,30,15,8,90,43,25,28.21,27.99,17,3,27,0.00
2013-3-21,30,25,20,26,13,8,84,61,46,28.12,27.99,12,1,17,0.00
2013-3-22,44,31,21,19,14,10,78,53,32,28.21,28.10,10,1,16,0.00
2013-3-23,52,34,17,23,18,14,92,59,25,28.24,28.13,11,1,13,0.00
2013-3-24,37,29,23,29,25,20,95,83,59,28.18,27.79,4,0,6,0.00
2013-3-25,38,32,27,32,28,23,96,84,64,27.94,27.72,5,1,15,0.14
2013-3-26,43,35,30,31,28,24,95,77,53,28.27,27.94,5,1,12,0.17
2013-3-27,40,34,26,30,27,24,95,76,58,28.37,28.27,9,1,11,0.23
2013-3-28,40,37,33,29,25,23,75,64,57,28.45,28.34,8,1,19,0.00
2013-3-29,52,40,29,33,27,22,88,64,34,28.47,28.37,8,1,15,0.00
2013-3-30,59,39,23,33,27,22,96,67,27,28.45,28.29,4,1,11,0.00
2013-3-31,55,42,30,49,38,27,96,88,75,28.30,27.98,6,1,13,0.15
2013-4-1,52,42,35,44,34,17,95,74,46,28.22,28.03,11,1,21,0.04
2013-4-2,46,35,24,19,15,9,76,46,24,28.37,28.22,9,1,17,0.00
2013-4-3,49,34,18,22,15,10,89,54,23,28.55,28.37,10,1,20,0.00
2013-4-4,49,34,20,34,20,15,93,63,28,28.56,28.23,9,2,13,0.13
2013-4-5,62,44,32,42,32,26,97,71,29,28.30,28.11,5,1,15,0.17
2013-4-6,63,42,22,29,23,17,95,57,20,28.49,28.30,9,1,13,0.00
2013-4-7,71,56,41,44,36,23,86,49,33,28.39,28.19,9,3,17,0.00
2013-4-8,77,58,35,51,43,34,97,65,29,28.34,28.18,9,2,17,0.00
2013-4-9,82,61,45,56,50,43,95,70,35,28.37,28.22,7,1,15,0.00
2013-4-10,88,67,45,58,51,43,96,63,27,28.29,28.10,12,2,17,0.00
2013-4-11,84,66,46,60,51,45,98,65,28,28.19,27.97,8,2,14,0.00
2013-4-12,74,63,49,61,51,34,97,69,35,28.09,27.86,11,1,15,1.12
2013-4-13,67,54,42,41,31,23,69,45,22,28.23,28.07,9,2,21,0.00
2013-4-14,75,54,35,48,38,30,91,60,25,28.34,28.23,9,1,13,0.00
2013-4-15,60,55,50,51,49,45,96,81,64,28.45,28.31,8,2,14,0.09
2013-4-16,77,65,56,61,56,51,90,75,55,28.48,28.34,12,4,18,0.06
2013-4-17,80,66,53,63,58,52,98,77,47,28.47,28.36,5,1,8,0.24
2013-4-18,73,66,59,63,58,54,95,78,60,28.41,28.18,12,3,19,0.00
2013-4-19,70,62,46,63,54,35,94,76,62,28.19,27.88,14,4,21,0.26
2013-4-20,56,45,33,35,28,22,81,54,32,28.56,28.10,13,2,17,0.26
2013-4-21,57,41,27,34,28,25,93,64,34,28.75,28.57,8,1,14,0.00
2013-4-22,60,43,27,33,28,21,95,62,25,28.71,28.52,11,1,15,0.00
2013-4-23,72,50,28,46,38,27,95,69,33,28.56,28.28,8,1,12,0.00
2013-4-24,77,58,41,55,47,37,97,71,42,28.33,28.04,16,3,21,0.02
2013-4-25,66,49,35,36,29,16,81,50,15,28.54,28.34,8,1,13,0.02
2013-4-26,69,48,29,42,34,27,93,62,28,28.66,28.51,8,1,9,0.00
2013-4-27,71,53,34,47,39,33,96,64,30,28.62,28.45,6,1,14,0.00
2013-4-28,56,52,48,51,47,43,92,83,71,28.46,28.30,12,3,18,0.09
2013-4-29,71,57,49,58,52,47,96,85,54,28.32,28.21,6,1,10,0.06
2013-4-30,65,58,52,57,53,51,97,86,65,28.49,28.29,6,1,12,0.08
2013-5-1,72,58,44,54,47,35,96,71,30,28.60,28.48,13,1,15,0.00
2013-5-2,74,55,36,52,42,35,98,67,34,28.61,28.48,9,1,14,0.00
2013-5-3,68,52,34,49,41,33,98,71,39,28.55,28.46,9,1,20,0.00
2013-5-4,67,52,36,47,41,34,93,68,38,28.50,28.36,12,2,15,0.00
2013-5-5,69,53,32,43,38,27,97,63,23,28.41,28.29,11,2,14,0.00
2013-5-6,54,51,47,53,48,42,97,89,66,28.35,28.23,7,1,12,0.23
2013-5-7,59,54,50,57,54,49,98,96,90,28.23,28.16,5,1,10,0.65
2013-5-8,62,53,46,56,51,46,98,94,75,28.24,28.17,5,1,7,0.05
2013-5-9,76,56,43,61,50,43,98,83,37,28.31,28.20,6,1,11,0.11
2013-5-10,80,61,46,63,54,45,98,82,44,28.32,28.14,9,1,16,0.22
2013-5-11,73,62,54,62,56,49,99,81,55,28.15,28.04,12,1,15,0.22
2013-5-12,59,51,38,50,35,27,85,57,35,28.30,28.07,10,1,20,0.00
2013-5-13,54,43,34,35,31,24,92,65,34,28.41,28.27,7,1,13,0.00
2013-5-14,69,48,29,49,37,27,96,70,26,28.44,28.22,3,0,9,0.01
2013-5-15,90,66,42,63,49,41,98,63,25,28.24,28.05,9,2,26,0.01
2013-5-16,77,67,56,61,55,48,93,66,45,28.27,28.12,11,1,16,0.00
2013-5-17,82,62,46,64,55,45,99,82,35,28.38,28.26,8,1,12,0.04
2013-5-18,74,63,56,65,60,56,98,89,69,28.43,28.34,7,0,10,0.15
2013-5-19,70,63,60,64,61,59,98,93,79,28.40,28.31,5,0,8,0.15
2013-5-20,84,67,58,68,63,57,98,88,52,28.35,28.26,4,1,9,0.04
2013-5-21,89,71,56,72,63,55,99,79,45,28.29,28.14,5,1,10,0.05
2013-5-22,89,68,54,69,62,54,99,83,41,28.23,28.14,5,1,12,0.28
2013-5-23,81,66,59,69,62,58,98,87,52,28.16,28.02,6,1,9,0.05
2013-5-24,58,52,41,58,43,32,98,73,51,28.44,28.08,8,2,18,0.05
2013-5-25,64,48,30,39,34,29,97,65,32,28.49,28.41,8,1,13,0.00
2013-5-26,72,52,33,41,34,26,98,61,20,28.51,28.41,8,1,12,0.00
2013-5-27,64,51,33,55,44,32,96,79,49,28.54,28.40,3,0,4,0.00
2013-5-28,83,65,48,64,56,46,98,74,40,28.44,28.32,9,1,12,0.00
2013-5-29,88,69,52,67,57,51,99,71,34,28.42,28.35,5,1,12,0.00
2013-5-30,90,71,53,68,58,52,98,69,32,28.49,28.38,5,1,11,0.00
2013-5-31,89,71,51,67,58,51,98,69,27,28.45,28.30,9,1,12,0.00
2013-6-1,89,74,59,66,63,58,97,72,41,28.35,28.21,11,2,18,0.00
2013-6-2,82,70,61,69,64,59,97,84,54,28.22,28.13,7,1,10,0.35
2013-6-3,79,66,56,69,61,55,98,84,52,28.27,28.14,7,1,10,0.40
2013-6-4,76,62,52,55,52,48,98,72,39,28.40,28.27,6,1,9,0.00
2013-6-5,80,66,52,63,57,50,94,75,53,28.41,28.26,8,2,14,0.00
2013-6-6,67,63,61,63,61,59,98,93,77,28.28,28.11,3,0,9,0.06
2013-6-7,67,63,60,66,62,59,98,97,94,28.11,27.96,3,0,5,0.01
2013-6-8,78,64,56,68,59,55,98,87,52,28.38,28.10,3,0,5,0.01
2013-6-9,80,66,55,70,62,54,98,88,67,28.44,28.32,4,0,11,0.15
2013-6-10,79,67,61,72,65,60,98,94,73,28.37,28.10,10,1,14,0.05
2013-6-11,78,66,57,65,61,56,98,84,58,28.20,28.13,7,1,13,0.05
2013-6-12,88,73,63,71,66,61,96,80,51,28.21,28.11,6,0,12,0.00
2013-6-13,76,66,59,71,63,57,98,91,73,28.13,27.87,6,1,13,0.06
2013-6-14,72,63,53,59,55,52,96,76,54,28.32,28.01,8,1,13,0.06
2013-6-15,81,64,47,60,54,47,98,74,38,28.38,28.28,4,0,8,0.00
2013-6-16,81,68,53,67,60,53,97,79,56,28.34,28.22,7,1,12,0.00
2013-6-17,84,71,61,68,64,60,97,79,51,28.27,28.18,4,0,7,0.00
2013-6-18,72,65,58,68,62,57,97,92,69,28.22,28.12,3,0,6,0.24
2013-6-19,75,64,56,66,60,55,98,88,66,28.40,28.21,5,1,10,0.01
2013-6-20,84,70,58,67,63,57,98,79,45,28.49,28.41,9,1,12,0.01
2013-6-21,85,71,59,69,63,58,98,78,47,28.53,28.45,4,0,10,0.01
2013-6-22,88,72,56,66,61,56,98,72,43,28.51,28.39,6,1,10,0.00
2013-6-23,88,70,57,70,63,57,98,80,40,28.47,28.35,6,0,10,0.93
2013-6-24,85,69,59,73,66,59,98,90,57,28.46,28.35,4,0,12,1.42
2013-6-25,90,75,61,73,66,60,98,78,46,28.38,28.21,4,0,7,0.00
2013-6-26,87,72,62,72,66,61,98,83,52,28.25,28.14,9,1,14,0.01
2013-6-27,81,70,60,70,66,60,98,85,64,28.16,27.96,5,1,9,0.00
2013-6-28,87,73,61,70,63,58,98,74,43,27.98,27.82,10,2,17,0.02
2013-6-29,84,69,56,67,62,55,98,80,40,28.02,27.87,7,1,15,0.35
2013-6-30,88,72,60,72,65,59,98,82,44,28.14,28.01,5,0,12,0.35
2013-7-1,79,67,64,70,65,63,98,94,72,28.19,28.12,4,0,4,0.06